EW7351 Weather Reports


time (UTC)temp
F
wind
direction
speed
knots
gust
knots
rain 1hr
in
rain 24hr
in
rain mn
in
humidity
%
barometer
mb
20260509184212 84 347 1.7 8.7 0.00 0.00 0.00 59 1008.4
20260509183709 84 45 0.9 8.7 0.00 0.00 0.00 62 1008.4
20260509183435 83 72 1.7 7.0 0.00 0.00 0.00 62 1008.4
20260509182648 83 322 1.7 7.8 0.00 0.00 0.00 60 1008.4
20260509182149 83 83 1.7 7.8 0.00 0.00 0.00 64 1008.5
20260509181916 83 50 1.7 7.0 0.00 0.00 0.00 61 1008.6
20260509181128 83 323 1.7 7.0 0.00 0.00 0.00 60 1008.7
20260509180627 83 328 1.7 6.1 0.00 0.00 0.00 61 1008.7
20260509180338 83 63 0.9 5.2 0.00 0.00 0.00 62 1008.7
20260509175548 83 326 0.9 7.0 0.00 0.00 0.00 61 1008.8
20260509175026 83 348 0.9 7.0 0.00 0.00 0.00 62 1008.9
20260509174747 82 347 0.9 5.2 0.00 0.00 0.00 62 1009.0
20260509174024 82 336 0.9 5.2 0.00 0.00 0.00 62 1008.9
20260509173500 83 354 0.9 5.2 0.00 0.00 0.00 61 1009.0
20260509172941 83 355 0.9 6.1 0.00 0.00 0.00 64 1009.1
20260509172416 83 337 0.9 6.1 0.00 0.00 0.00 61 1009.1
20260509171850 83 249 0.9 4.3 0.00 0.00 0.00 60 1009.1
20260509171327 82 118 0.9 4.3 0.00 0.00 0.00 64 1009.2
20260509170758 82 27 0.9 4.3 0.00 0.00 0.00 64 1009.3
20260509170258 82 356 1.7 5.2 0.00 0.00 0.00 62 1009.3
20260509165755 81 359 0.9 5.2 0.00 0.00 0.00 62 1009.2
20260509165255 81 336 0.9 6.1 0.00 0.00 0.00 66 1009.1
20260509164755 81 354 0.9 6.1 0.00 0.00 0.00 66 1009.2
20260509164256 81 68 0.9 3.5 0.00 0.00 0.00 64 1009.2
20260509163943 81 8 0.9 5.2 0.00 0.00 0.00 64 1009.2
20260509163225 81 52 0.9 5.2 0.00 0.00 0.00 65 1009.3
20260509162659 80 5 0.9 3.5 0.00 0.00 0.00 66 1009.2
20260509162157 80 329 0.9 3.5 0.00 0.00 0.00 67 1009.2
20260509161633 79 22 1.7 6.1 0.00 0.00 0.00 68 1009.2
20260509161128 79 20 0.9 6.1 0.00 0.00 0.00 68 1009.1
20260509160626 79 334 1.7 6.1 0.00 0.00 0.00 68 1009.2
20260509160349 78 13 2.6 9.6 0.00 0.00 0.00 69 1009.2
20260509155623 78 326 1.7 9.6 0.00 0.00 0.00 69 1009.2
20260509155118 78 9 1.7 6.1 0.00 0.00 0.00 70 1009.1
20260509154614 78 338 1.7 5.2 0.00 0.00 0.00 69 1009.1
20260509154113 78 38 0.9 6.1 0.00 0.00 0.00 71 1009.1
20260509153609 77 358 1.7 6.1 0.00 0.00 0.00 70 1009.1
20260509153105 77 323 0.9 5.2 0.00 0.00 0.00 71 1009.1
20260509152825 77 349 1.7 5.2 0.00 0.00 0.00 72 1009.0
20260509152037 77 72 1.7 7.8 0.00 0.00 0.00 72 1008.9
20260509151512 77 337 1.7 7.8 0.00 0.00 0.00 71 1009.0
20260509150946 76 352 2.6 7.0 0.00 0.00 0.00 72 1009.0
20260509150420 76 350 2.6 5.2 0.00 0.00 0.00 73 1009.0
20260509150119 76 342 2.6 9.6 0.00 0.00 0.00 73 1009.1
20260509145349 76 351 2.6 5.2 0.00 0.00 0.00 74 1009.1
20260509144848 75 320 1.7 7.0 0.00 0.00 0.00 74 1009.2
20260509144544 75 321 1.7 7.0 0.00 0.00 0.00 76 1009.3
20260509144243 75 330 0.9 6.1 0.00 0.00 0.00 76 1009.2
20260509143251 74 9 0.9 6.1 0.00 0.00 0.00 77 1009.2
20260509142749 74 353 1.7 5.2 0.00 0.00 0.00 78 1009.2
20260509142222 74 12 1.7 5.2 0.00 0.00 0.00 78 1009.1
20260509141720 74 350 0.9 5.2 0.00 0.00 0.00 77 1009.1
20260509141216 74 17 0.9 5.2 0.00 0.00 0.00 77 1009.0
20260509140713 74 274 1.7 7.0 0.00 0.00 0.00 80 1008.9
20260509140147 73 6 1.7 7.0 0.00 0.00 0.00 79 1008.9
20260509135838 73 70 1.7 5.2 0.00 0.00 0.00 79 1008.8
20260509135114 74 37 1.7 5.2 0.00 0.00 0.00 78 1008.9
20260509134550 73 58 1.7 7.0 0.00 0.00 0.00 79 1008.8
20260509134238 73 28 1.7 7.0 0.00 0.00 0.00 81 1008.7
20260509133454 73 36 1.7 7.0 0.00 0.00 0.00 81 1008.7
20260509132941 73 54 0.9 7.0 0.00 0.00 0.00 82 1008.7
20260509132658 72 274 0.0 5.2 0.00 0.00 0.00 83 1008.7
20260509131911 72 359 1.7 4.3 0.00 0.00 0.00 84 1008.6
20260509131346 71 27 1.7 6.1 0.00 0.00 0.00 84 1008.4
20260509130820 71 347 0.0 5.2 0.00 0.00 0.00 86 1008.5
20260509130316 71 276 0.0 2.6 0.00 0.00 0.00 87 1008.6
20260509125748 70 228 0.0 2.6 0.00 0.00 0.00 88 1008.6
20260509125242 70 276 0.0 2.6 0.00 0.00 0.00 89 1008.5
20260509124740 69 221 0.0 1.7 0.00 0.00 0.00 89 1008.5
20260509124210 69 224 0.0 1.7 0.00 0.00 0.00 89 1008.7
20260509123709 68 124 0.0 0.0 0.00 0.00 0.00 89 1008.5
20260509123142 67 124 0.0 0.0 0.00 0.00 0.00 89 1008.6
20260509122618 67 124 0.0 0.0 0.00 0.00 0.00 88 1008.7
20260509122320 67 124 0.0 0.0 0.00 0.00 0.00 88 1008.5
20260509121742 67 124 0.0 0.0 0.00 0.00 0.00 88 1008.6
20260509120954 68 124 0.0 0.0 0.00 0.00 0.00 88 1008.5
20260509120710 68 124 0.0 0.0 0.00 0.00 0.00 88 1008.5
20260509115948 68 124 0.0 0.0 0.00 0.00 0.00 88 1008.5
20260509115416 68 124 0.0 0.0 0.00 0.00 0.00 88 1008.5
20260509114847 68 124 0.0 0.0 0.00 0.00 0.00 87 1008.4
20260509114345 68 124 0.0 0.0 0.00 0.00 0.00 87 1008.2
20260509113841 68 124 0.0 0.0 0.00 0.00 0.00 87 1008.2
20260509113338 69 124 0.0 0.0 0.00 0.00 0.00 87 1008.0
20260509112813 69 124 0.0 0.0 0.00 0.00 0.00 86 1007.9
20260509112246 69 124 0.0 0.0 0.00 0.00 0.00 87 1007.9
20260509111744 69 124 0.0 0.9 0.00 0.00 0.00 87 1007.9
20260509111231 69 124 0.0 2.6 0.00 0.00 0.00 87 1007.8
20260509110734 69 124 0.0 2.6 0.00 0.00 0.00 87 1007.7
20260509110424 69 124 0.9 2.6 0.00 0.00 0.00 87 1007.7
20260509105931 69 114 0.9 3.5 0.00 0.00 0.00 87 1007.5
20260509105135 69 122 0.9 3.5 0.00 0.00 0.00 87 1007.6
20260509104633 69 134 0.0 0.9 0.00 0.00 0.00 87 1007.6
20260509104109 69 230 0.0 0.0 0.00 0.00 0.00 87 1007.7
20260509103814 69 231 0.0 0.0 0.00 0.00 0.00 87 1007.7
20260509103320 69 231 0.0 0.0 0.00 0.00 0.00 87 1007.6
20260509102532 69 230 0.0 0.0 0.00 0.00 0.00 87 1007.6
20260509102003 69 230 0.0 0.0 0.00 0.00 0.00 86 1007.5
20260509101502 69 231 0.0 0.0 0.00 0.00 0.00 86 1007.6
20260509100936 69 230 0.0 0.9 0.00 0.00 0.00 86 1007.5
20260509100628 69 231 0.0 0.9 0.00 0.00 0.00 86 1007.6
20260509100130 69 230 0.0 2.6 0.00 0.00 0.00 86 1007.4
20260509095340 69 235 0.9 2.6 0.00 0.00 0.00 86 1007.3
20260509095035 69 229 1.7 5.2 0.00 0.00 0.00 87 1007.2
20260509094250 69 238 0.9 4.3 0.00 0.00 0.00 87 1007.1
20260509093720 69 241 0.9 6.1 0.00 0.00 0.00 87 1007.0
20260509093219 69 195 2.6 6.1 0.00 0.00 0.00 87 1006.8
20260509092653 69 226 3.5 7.8 0.00 0.00 0.00 87 1006.2
20260509092344 69 150 2.6 7.8 0.00 0.00 0.00 87 1006.0
20260509091622 69 139 2.6 6.1 0.00 0.00 0.00 87 1006.0
20260509091054 69 124 2.6 7.8 0.00 0.00 0.00 86 1005.9
20260509090550 69 109 2.6 7.8 0.00 0.00 0.00 86 1005.7
20260509090047 69 136 2.6 7.8 0.00 0.00 0.00 86 1005.7
20260509085543 69 128 1.7 7.8 0.00 0.00 0.00 85 1006.0
20260509085241 69 192 1.7 7.8 0.00 0.00 0.00 85 1006.2
20260509084710 69 137 3.5 9.6 0.00 0.00 0.00 85 1006.3
20260509083926 69 153 3.5 9.6 0.00 0.00 0.00 85 1006.3
20260509083650 69 149 2.6 6.1 0.00 0.00 0.00 85 1006.6
20260509082920 69 96 1.7 5.2 0.00 0.00 0.00 84 1007.0
20260509082846 69 261 1.7 5.2 0.00 0.00 0.00 84 1007.4
20260509081829 69 156 1.7 4.3 0.00 0.00 0.00 84 1007.8
20260509081324 70 146 1.7 4.3 0.00 0.00 0.00 84 1007.7
20260509081234 70 99 1.7 4.3 0.00 0.00 0.00 84 1008.0
20260509080515 70 128 0.9 4.3 0.00 0.00 0.00 84 1008.0
20260509075729 69 140 0.0 3.5 0.00 0.00 0.00 84 1008.4
20260509075227 69 134 0.0 1.7 0.00 0.00 0.00 84 1008.4
20260509074724 69 129 0.0 0.9 0.00 0.00 0.00 85 1008.5
20260509074225 69 124 0.0 0.9 0.00 0.00 0.00 85 1008.7
20260509073659 69 123 0.0 0.9 0.00 0.00 0.00 84 1008.9
20260509073139 69 205 0.0 0.0 0.00 0.00 0.00 84 1009.1
20260509072637 69 205 0.0 0.0 0.00 0.00 0.00 84 1009.1
20260509072127 69 205 0.0 0.0 0.00 0.00 0.00 84 1009.2
20260509071605 69 205 0.0 0.0 0.00 0.00 0.00 83 1009.3
20260509071324 69 205 0.0 0.0 0.00 0.00 0.00 83 1009.3
20260509070605 69 205 0.0 0.9 0.00 0.00 0.00 83 1009.2
20260509070049 69 205 0.0 0.9 0.00 0.00 0.00 83 1008.9
20260509065527 69 205 0.0 2.6 0.00 0.00 0.00 83 1008.7
20260509065025 69 252 0.0 2.6 0.00 0.00 0.00 83 1008.4
20260509064746 70 165 0.9 4.3 0.00 0.00 0.00 82 1008.2
20260509064006 70 234 0.9 4.3 0.00 0.00 0.00 83 1008.4
20260509063442 70 233 0.9 3.5 0.00 0.00 0.00 83 1008.6
20260509062927 69 259 0.9 2.6 0.00 0.00 0.00 83 1008.6
20260509062424 69 236 0.9 2.6 0.00 0.00 0.00 83 1008.6
20260509061858 69 153 0.0 1.7 0.00 0.00 0.00 83 1008.5
20260509061342 69 127 0.0 0.0 0.00 0.00 0.00 82 1008.7
20260509060816 69 131 0.0 0.0 0.00 0.00 0.00 82 1009.1
20260509060520 69 131 0.0 1.7 0.00 0.00 0.00 81 1009.0
20260509055734 70 131 0.0 1.7 0.00 0.00 0.00 81 1009.0
20260509055501 70 343 0.0 1.7 0.00 0.00 0.00 81 1009.5
20260509054710 70 221 0.9 3.5 0.00 0.00 0.00 81 1009.4
20260509054153 70 231 0.9 3.5 0.00 0.00 0.00 81 1008.9
20260509053630 70 190 0.0 0.0 0.00 0.00 0.00 80 1009.4
20260509053106 70 326 0.0 2.6 0.00 0.00 0.00 80 1009.9
20260509052827 71 326 0.9 2.6 0.00 0.00 0.00 79 1010.1
20260509052105 71 25 0.9 2.6 0.00 0.00 0.00 79 1009.9
20260509051603 71 27 0.9 3.5 0.00 0.00 0.00 79 1009.6
20260509051102 71 273 1.7 4.3 0.00 0.00 0.00 79 1008.9
20260509050543 71 172 0.9 4.3 0.00 0.00 0.00 78 1008.6
20260509050039 71 235 0.9 3.5 0.00 0.00 0.00 78 1008.7
20260509045538 71 255 0.9 3.5 0.00 0.00 0.00 78 1008.8
20260509045005 71 250 2.6 7.0 0.00 0.00 0.00 78 1008.3
20260509044436 71 152 1.7 7.0 0.00 0.00 0.00 77 1008.1
20260509043935 71 226 0.9 3.5 0.00 0.00 0.00 78 1008.3
20260509043425 71 134 1.7 4.3 0.00 0.00 0.00 78 1008.3
20260509042922 71 112 1.7 5.2 0.00 0.00 0.00 78 1008.2
20260509042355 71 108 1.7 5.2 0.00 0.00 0.00 78 1008.1
20260509041853 71 120 0.9 3.5 0.00 0.00 0.00 77 1008.4
20260509041355 71 139 0.0 1.7 0.00 0.00 0.00 77 1008.9
20260509040838 72 112 0.0 0.0 0.00 0.00 0.00 77 1009.2
20260509040340 72 112 0.0 0.0 0.00 0.00 0.00 76 1009.4
20260509040056 72 112 0.0 0.0 0.00 0.00 0.00 76 1009.4
20260509035335 72 112 0.0 0.0 0.00 0.00 0.00 76 1009.4
20260509035028 72 112 0.0 0.0 0.00 0.00 0.00 76 1009.3
20260509034303 71 112 0.0 0.0 0.00 0.00 0.00 76 1009.2
20260509033800 71 112 0.0 0.0 0.00 0.00 0.00 76 1009.0
20260509033258 71 112 0.0 0.0 0.00 0.00 0.00 75 1008.9
20260509032949 72 112 0.0 0.9 0.00 0.00 0.00 75 1008.6
20260509032230 71 112 0.0 1.7 0.00 0.00 0.00 75 1008.5
20260509031716 71 257 0.0 1.7 0.00 0.00 0.00 75 1008.5
20260509031434 71 129 0.0 0.9 0.00 0.00 0.00 75 1008.6
20260509030902 71 129 0.0 0.9 0.00 0.00 0.00 75 1008.7
20260509030116 71 129 0.0 1.7 0.00 0.00 0.00 75 1008.6
20260509025610 71 145 0.0 1.7 0.00 0.00 0.00 74 1008.5
20260509025329 71 145 0.0 1.7 0.00 0.00 0.00 74 1008.3
20260509024604 72 187 0.9 2.6 0.00 0.00 0.00 74 1008.1
20260509024104 72 226 0.9 2.6 0.00 0.00 0.00 74 1007.9
20260509023550 72 161 0.9 4.3 0.00 0.00 0.00 74 1007.9
20260509023052 72 121 0.9 4.3 0.00 0.00 0.00 73 1008.0
20260509022528 72 302 0.9 3.5 0.00 0.00 0.00 73 1007.7
20260509022028 72 165 0.9 3.5 0.00 0.00 0.00 73 1007.6
20260509021455 72 129 0.9 4.3 0.00 0.00 0.00 73 1007.6
20260509020952 72 120 0.9 4.3 0.00 0.00 0.00 72 1007.7
20260509020449 72 159 0.9 3.5 0.00 0.00 0.00 72 1007.8
20260509020158 72 113 0.9 5.2 0.00 0.00 0.00 72 1007.8
20260509015709 72 165 1.7 5.2 0.00 0.00 0.00 72 1007.7
20260509014936 73 233 1.7 7.0 0.00 0.00 0.00 72 1007.6
20260509014436 73 232 1.7 5.2 0.00 0.00 0.00 72 1007.6
20260509013906 72 217 2.6 5.2 0.00 0.00 0.00 72 1007.6
20260509013402 72 239 1.7 5.2 0.00 0.00 0.00 72 1007.5
20260509012838 72 252 0.9 3.5 0.00 0.00 0.00 72 1007.4
20260509012330 72 213 0.0 1.7 0.00 0.00 0.00 73 1007.4
20260509011830 72 141 0.0 1.7 0.00 0.00 0.00 72 1007.3
20260509011300 72 144 0.0 1.7 0.00 0.00 0.00 72 1007.2
20260509010759 72 107 0.9 2.6 0.00 0.00 0.00 72 1007.2
20260509010515 72 264 0.9 2.6 0.00 0.00 0.00 72 1007.1
20260509005754 72 214 0.9 3.5 0.00 0.00 0.00 71 1007.0
20260509005224 72 155 1.7 3.5 0.00 0.00 0.00 71 1007.0
20260509004945 72 257 1.7 5.2 0.00 0.00 0.00 71 1007.0
20260509004213 72 170 1.7 5.2 0.00 0.00 0.00 71 1006.9
20260509003713 72 127 2.6 6.1 0.00 0.00 0.00 70 1006.8
20260509003148 73 128 2.6 6.1 0.00 0.00 0.00 70 1006.7
20260509002845 73 195 1.7 6.1 0.00 0.00 0.00 70 1006.8
20260509002052 73 153 2.6 9.6 0.00 0.00 0.00 69 1006.9
20260509001551 73 223 2.6 9.6 0.00 0.00 0.00 69 1006.9
20260509001244 73 203 1.7 5.2 0.00 0.00 0.00 69 1007.0
20260509000454 73 159 1.7 6.1 0.00 0.00 0.00 68 1007.1
20260508235951 73 127 1.7 6.1 0.00 0.00 0.00 67 1007.2
20260508235424 73 110 1.7 5.2 0.00 0.00 0.00 67 1007.2
20260508234922 73 143 1.7 4.3 0.00 0.00 0.00 66 1007.2
20260508234354 74 185 0.9 4.3 0.00 0.00 0.00 65 1007.3
20260508233852 74 113 1.7 6.1 0.00 0.00 0.00 65 1007.3
20260508233350 74 146 2.6 7.0 0.00 0.00 0.00 64 1007.3
20260508232827 74 80 1.7 7.0 0.00 0.00 0.00 64 1007.3
20260508232314 75 110 1.7 7.0 0.00 0.00 0.00 64 1007.4
20260508231814 75 164 1.7 5.2 0.00 0.00 0.00 63 1007.4
20260508231507 75 181 2.6 7.0 0.00 0.00 0.00 65 1007.4
20260508230746 74 226 3.5 7.0 0.00 0.00 0.00 64 1007.4
20260508230242 74 149 3.5 7.8 0.00 0.00 0.00 64 1007.4
20260508225721 74 240 3.5 7.8 0.00 0.00 0.00 65 1007.5
20260508225224 74 229 3.5 7.8 0.00 0.00 0.00 64 1007.5
20260508224658 75 193 4.3 8.7 0.00 0.00 0.00 63 1007.5
20260508224135 75 210 4.3 10.4 0.00 0.00 0.00 63 1007.4
20260508223609 75 211 4.3 10.4 0.00 0.00 0.00 62 1007.3
20260508223339 76 227 4.3 7.8 0.00 0.00 0.00 63 1007.3
20260508222838 76 234 3.5 11.3 0.00 0.00 0.00 62 1007.3
20260508222053 77 233 3.5 8.7 0.00 0.00 0.00 64 1007.3
20260508221552 76 143 4.3 8.7 0.00 0.00 0.00 63 1007.2
20260508221317 76 238 4.3 8.7 0.00 0.00 0.00 63 1007.3
20260508220536 76 155 3.5 8.7 0.00 0.00 0.00 64 1007.2
20260508220035 76 203 3.5 7.0 0.00 0.00 0.00 64 1007.2
20260508215521 76 212 3.5 7.0 0.00 0.00 0.00 65 1007.2
20260508215023 76 217 3.5 6.1 0.00 0.00 0.00 65 1007.2
20260508214459 76 226 3.5 7.8 0.00 0.00 0.00 64 1007.1
20260508213935 76 153 3.5 7.8 0.00 0.00 0.00 65 1007.1
20260508213411 76 128 2.6 7.0 0.00 0.00 0.00 64 1007.0
20260508213334 76 207 2.6 7.0 0.00 0.00 0.00 65 1007.0
20260508212350 75 179 2.6 7.0 0.00 0.00 0.00 69 1007.1
20260508212116 73 106 2.6 6.1 0.00 0.00 0.00 71 1007.5
20260508211328 73 124 1.7 5.2 0.00 0.00 0.00 68 1008.0
20260508210800 73 133 1.7 4.3 0.00 0.00 0.00 68 1008.1
20260508210303 73 220 1.7 6.1 0.00 0.00 0.00 68 1008.3
20260508205750 73 183 1.7 6.1 0.00 0.00 0.00 68 1008.6
20260508205509 73 122 2.6 6.1 0.00 0.00 0.00 68 1008.7
20260508205012 74 220 2.6 6.1 0.00 0.00 0.00 65 1008.9
20260508204227 74 192 2.6 6.1 0.00 0.00 0.00 64 1009.1
20260508203703 74 153 2.6 6.1 0.00 0.00 0.00 63 1009.2
20260508203143 74 149 1.7 6.1 0.00 0.00 0.00 63 1009.2
20260508202616 74 214 1.7 6.1 0.00 0.00 0.00 63 1009.3
20260508202117 74 231 1.7 6.1 0.00 0.00 0.00 62 1009.2
20260508201548 75 225 1.7 6.1 0.00 0.00 0.00 61 1009.2
20260508201048 75 225 2.6 7.0 0.00 0.00 0.00 62 1009.2
20260508200547 75 214 3.5 7.0 0.00 0.00 0.00 61 1009.2
20260508200044 76 183 2.6 7.8 0.00 0.00 0.00 60 1009.1
20260508195520 76 194 3.5 7.8 0.00 0.00 0.00 59 1009.2
20260508195235 76 224 2.6 7.8 0.00 0.00 0.00 58 1009.2
20260508194455 77 143 2.6 7.8 0.00 0.00 0.00 59 1009.3
20260508193950 77 237 4.3 10.4 0.00 0.00 0.00 60 1009.3
20260508193446 77 139 4.3 10.4 0.00 0.00 0.00 58 1009.3
20260508192943 77 134 4.3 11.3 0.00 0.00 0.00 59 1009.3
20260508192923 77 154 4.3 11.3 0.00 0.00 0.00 58 1009.3
20260508191916 77 235 4.3 8.7 0.00 0.00 0.00 59 1009.3
20260508191347 77 196 4.3 9.6 0.00 0.00 0.00 58 1009.4
20260508190849 77 157 3.5 9.6 0.00 0.00 0.00 57 1009.5
20260508190322 77 129 2.6 7.8 0.00 0.00 0.00 57 1009.5
20260508190015 78 108 2.6 7.8 0.00 0.00 0.00 60 1009.6
20260508185249 77 129 3.5 7.8 0.00 0.00 0.00 59 1009.6
20260508184747 77 117 3.5 8.7 0.00 0.00 0.00 58 1009.7